Regional Weather Roundup
Issued by NWS

Home | Current Version | Previous Version | Text Only | Print | Product List | Glossary Off
Versions: 1 2 3 4 5 6 7 8 9 10 11 12 13 14 15 16 17 18 19 20 21 22 23 24 25 26 27

000
ASUS45 KCYS 250310
RWRWY

WYOMING REGIONAL WEATHER ROUNDUP
NATIONAL WEATHER SERVICE CHEYENNE WY
900 PM MDT SAT JUN 24 2017

NOTE:  "FAIR" INDICATES FEW OR NO CLOUDS BELOW 12,000 FEET
WITH NO SIGNIFICANT WEATHER AND/OR OBSTRUCTIONS TO VISIBILITY.

WYZ001-250400-
YELLOWSTONE NATIONAL PARK

CITY           SKY/WX    TMP DP  RH WIND       PRES   REMARKS
LK YELLOWSTONE   N/A     57  32  38 VRB5      30.44R
W YELLOWSTONE  NOT AVBL

$$
WYZ002>013-054>058-071-098>099-250400-
NORTHERN WYOMING

CITY           SKY/WX    TMP DP  RH WIND       PRES   REMARKS
JACKSON        FAIR      64  34  32 NW3       30.33R
CODY           FAIR      63  36  36 N8        30.35R
GREYBULL       CLOUDY    73  29  19 NW15      30.25R
WORLAND        FAIR      67  37  33 N5        30.25R
SHERIDAN       MOCLDY    62  43  49 CALM      30.31R
BUFFALO        MOCLDY    60  37  42 NW7       30.36R
GILLETTE       MOCLDY    64  31  28 NE9       30.33R
NEWCASTLE      FAIR      61  28  29 NE6G18    30.32R

$$
WYZ014>020-022>026-101>103-250400-
CENTRAL WYOMING

CITY           SKY/WX    TMP DP  RH WIND       PRES   REMARKS
BIG PINEY      FAIR      63  34  33 N8        30.35R
PINEDALE       FAIR      61  39  44 NW5       30.35S
DUBOIS         FAIR      59  32  36 SE8       30.37R
LANDER         MOCLDY    67  36  31 N3        30.29R
RIVERTON       MOCLDY    68  32  26 NE10      30.30R
CASPER         FAIR      64  33  31 E13       30.33R
DOUGLAS        FAIR      60  37  42 NE8       30.34R

$$
WYZ021-027>030-104>119-250400-
SOUTHERN WYOMING

CITY           SKY/WX    TMP DP  RH WIND       PRES   REMARKS
EVANSTON       FAIR      66  36  32 NW6       30.34R
KEMMERER         N/A     63  34  34 NW8       30.36S
FORT BRIDGER   FAIR      69  30  23 N6        30.35S
ROCK SPRINGS   FAIR      70  23  17 N5        30.31R
DIXON          FAIR      64  29  27 NE9       30.33R
RAWLINS        FAIR      60  26  27 NE9       30.35S
SARATOGA       FAIR      61  30  31 N5        30.37S
LARAMIE        CLOUDY    58  35  42 SE14      30.41R
CHEYENNE       CLOUDY    62  36  37 E7        30.38R
TORRINGTON     MOCLDY    64  34  32 NE8       30.28R
PINE BLUFFS    CLOUDY    63  41  45 NE6       30.34R

$$




USA.gov is the U.S. government's official web portal to all federal, state and local government web resources and services.